LAOSAT 1 (41034 NORAD) Tracking and Keplerian Element Data

This shows tracking and keplerian element data for the satellite.

Feedback or suggestion? Click here.




ElementValue
Catalog41034
NameLAOSAT 1
Epoch Orbit3386
Epoch Day34.70911672
Epoch Year2025
RAAN105.802
Inclination0.0145
Eccentricity0.0001986
Argument of Perigee178.5005
Mean Anonmoly233.5825
Mean Motion1.00273319
Decay Rate-3.39E-06
L11 41034U 15067A 25034.70911672 -.00000339 00000+0 00000+0 0 9992
L22 41034 0.0145 105.8020 0001986 178.5005 233.5825 1.00273319 33864



Live tracking and technical data element details for LAOSAT 1 (NORAD 41034). LAOSAT 1 can be tracked NOW for your location showing map with azimuth and elevation plus other details from your city location.







IsCatalogInMostPopularTable: catalog: 41034, numindb: 712
Update: records affected: 1



GetName: 41034 LAOSAT 1

Hit Count: updated at: Fri, 18 Jul 2025 16:14:12 GMT